{"data":{"norad_id":46746,"intl_designator":"2020-074H","name":"STARLINK-1905","alt_names":[],"object_type":"PAYLOAD","status":"ACTIVE","operator":null,"country":"US","launch_date":"2020-10-24","launch_site_code":"AFETR","launch_vehicle":null,"mission":null,"orbit_class":"UNKNOWN","rcs_meters":null,"size_class":null,"mass_kg":null,"dimensions":null,"purposes":["comms"],"wikipedia_slug":null,"has_3d_model":false,"image_url":null,"decayed_at":null,"tle_current":{"epoch":"2026-07-05T21:51:53.132832Z","epoch_age_seconds":6639280,"freshness":"OLD","line1":"1 46746U 20074H   26186.91103163  .10668105  12438-4  32174-3 0  9996","line2":"2 46746  53.0199  49.8931 0010173 255.1698 104.8223 16.44282955315902","mean_motion":16.44282955,"eccentricity":0.0010173,"inclination_deg":53.0199,"raan_deg":49.8931,"arg_perigee_deg":255.1698,"mean_anomaly_deg":104.8223,"bstar":0.00032174,"rev_number":31590,"period_min":87.576167813526,"perigee_km":147.78840805609,"apogee_km":161.07957699749,"semimajor_km":6532.5709925268,"source":"CELESTRAK","updated_at":"2026-07-06T09:01:09.200359Z"}}}